Theta_e
296 288 287 287 290 291 291 291 292 293 291 291 289 287 288 288 289 292 293 291 291 290 289 290 291 291 292 294 295 295 295 294 294 292 293 295 296 297 297 297 297 297 298 299 298 298 298 298 298 297 297 297 296 295 294 294 293 293 292 292 292 293 292 293 292 291 291 290 289 289 289 290 290 290 290 289 289 289 289 291 290 290 289 289 289 288
295 286 287 292 293 293 292 293 293 292 292 290 289 288 288 287 288 293 293 291 290 290 287 289 290 290 292 294 295 294 291 293 294 294 294 294 295 296 296 297 297 298 297 297 295 295 295 296 296 295 296 295 294 293 293 293 292 292 292 292 292 292 292 292 293 292 291 291 291 290 290 289 290 289 289 289 289 289 290 290 290 289 289 289 288 288
289 287 290 293 295 293 292 291 291 291 290 290 288 288 286 288 290 293 292 292 289 289 289 288 287 289 291 293 294 294 293 295 296 296 297 297 296 296 297 297 297 296 295 294 295 294 295 295 295 294 295 295 296 293 293 293 292 292 292 292 292 292 292 292 292 292 291 291 290 290 289 289 288 289 289 289 289 289 289 289 289 289 288 288 287 287
285 288 293 295 294 293 293 292 291 290 290 289 288 286 286 290 287 287 288 288 289 290 283 283 285 287 290 292 293 295 294 295 297 297 298 298 297 297 298 298 298 295 294 295 294 293 293 294 294 293 293 294 294 292 292 292 292 292 292 292 292 292 292 292 292 292 291 291 289 288 289 288 288 287 288 288 288 288 288 288 289 288 288 288 287 287
289 291 294 295 294 294 292 292 290 288 289 290 290 288 288 289 290 289 289 287 287 288 288 287 286 287 289 290 293 296 296 295 296 296 297 298 298 298 299 298 298 297 295 295 291 292 292 292 293 293 293 293 293 292 292 292 292 293 292 292 292 292 292 292 292 292 290 290 288 288 288 288 287 287 286 286 285 287 288 288 287 288 288 288 287 287
290 293 293 293 293 292 291 289 289 289 288 289 289 290 291 291 289 289 289 287 285 283 286 287 283 285 288 290 292 294 290 290 293 293 295 296 297 296 296 297 298 297 296 296 294 293 293 293 293 291 291 292 292 292 293 293 293 293 292 292 292 292 292 291 291 291 290 290 289 287 287 285 285 285 285 285 286 286 287 287 288 287 288 287 287 286
291 293 294 293 291 290 290 289 289 291 289 287 285 290 292 290 289 287 286 286 280 281 285 287 281 282 284 286 289 290 289 291 292 292 294 295 295 295 296 297 296 295 295 293 293 293 292 292 291 290 291 291 292 292 292 292 292 292 292 292 292 291 291 291 291 291 290 289 289 288 288 287 287 286 286 287 287 287 287 287 287 287 287 287 287 286
291 290 291 292 292 290 288 287 291 291 290 287 287 288 288 288 287 287 287 287 284 283 286 286 282 281 284 288 290 290 291 291 291 292 293 294 295 295 296 296 296 294 295 295 294 293 293 292 292 291 291 291 292 292 291 291 292 291 292 291 291 291 291 291 291 290 290 289 289 288 288 288 287 287 286 287 287 287 287 286 287 286 286 286 286 286
290 289 288 290 287 287 288 292 291 292 290 287 288 289 289 290 288 287 287 283 282 281 281 283 285 282 283 285 291 292 289 289 291 292 294 294 295 296 296 296 296 295 296 296 294 293 292 292 292 292 291 292 291 291 291 291 291 292 291 291 291 291 290 290 290 290 290 290 289 289 288 287 288 287 287 287 287 287 287 286 286 286 285 285 285 285
291 292 290 291 289 288 292 288 290 292 289 289 289 288 288 286 285 287 284 284 280 277 279 281 285 281 283 288 285 286 288 289 290 292 294 295 296 297 297 296 296 294 294 296 296 294 293 293 292 292 291 290 291 291 291 290 290 290 290 290 290 290 290 290 290 290 290 290 289 288 288 287 286 286 285 285 286 285 286 285 285 285 285 285 284 284
290 291 293 292 290 292 286 287 286 288 291 290 288 287 283 281 281 279 280 278 279 278 280 283 284 284 280 284 286 285 286 289 291 291 293 294 295 296 297 294 295 295 295 295 295 293 292 292 292 291 290 290 289 289 289 289 289 289 290 290 290 290 290 290 289 290 289 289 289 288 288 287 286 285 285 285 285 285 285 284 284 284 285 284 284 283
290 290 290 288 291 288 288 287 287 287 289 288 285 282 283 283 278 279 276 279 275 278 281 284 284 285 279 280 284 290 289 293 292 291 292 293 294 296 296 295 295 295 296 295 293 291 291 290 290 289 290 289 289 289 289 289 289 289 289 290 289 289 289 289 289 289 289 289 289 289 288 287 287 286 286 285 285 285 285 284 284 284 284 283 283 283
286 288 289 292 292 293 287 289 284 282 286 286 283 283 280 275 276 273 273 273 271 279 279 282 284 280 282 285 285 287 287 288 291 293 294 293 294 295 295 294 295 295 293 294 293 291 290 291 290 289 290 289 289 289 289 289 289 289 289 289 289 289 289 289 289 289 289 289 288 288 288 287 287 286 286 286 285 285 285 285 284 283 283 283 282 282
284 285 287 289 290 291 291 287 282 282 284 284 285 281 278 274 272 270 270 271 274 278 280 280 283 283 285 284 291 292 293 292 293 293 293 293 294 294 294 294 294 294 294 294 293 292 291 291 290 290 290 290 290 289 289 289 289 289 289 289 289 289 289 289 289 289 288 288 289 288 288 288 287 287 287 286 286 285 285 285 284 284 284 283 283 282
281 285 286 289 286 290 293 292 290 289 282 287 285 286 283 280 270 268 271 276 277 279 278 281 279 275 275 282 288 294 296 295 293 294 294 292 293 293 289 292 292 290 289 291 292 291 291 291 290 290 290 290 290 289 289 289 289 289 288 288 288 288 289 289 288 288 288 288 288 288 288 288 287 287 287 287 286 286 285 285 285 284 284 283 283 283
285 286 288 293 289 290 291 294 292 285 284 283 284 286 282 280 281 282 283 278 276 274 277 275 280 277 284 287 287 289 291 292 291 292 292 292 292 291 291 293 292 290 291 289 290 290 289 290 289 289 289 289 289 289 288 288 289 288 289 289 289 289 289 289 288 288 288 288 288 288 287 287 287 287 287 287 286 286 286 285 285 284 283 283 282 282
283 282 287 290 288 288 286 287 291 291 281 282 285 281 286 287 287 283 283 281 277 276 278 280 280 283 285 290 290 293 291 291 291 291 290 291 293 291 291 292 289 289 289 289 290 290 290 286 287 288 288 288 287 287 288 289 289 289 289 288 288 288 288 288 288 288 288 288 287 287 287 287 287 286 286 286 285 285 285 284 284 284 283 282 281 281
286 287 288 288 287 287 285 287 288 287 288 284 279 283 286 287 284 281 274 276 277 276 279 283 281 282 281 280 283 286 288 288 288 289 291 292 292 292 292 290 290 290 290 289 288 288 287 288 289 288 288 288 288 288 288 289 289 289 289 288 288 288 287 288 288 288 288 287 287 287 287 287 287 287 286 286 285 285 284 283 283 282 281 281 281 281
290 284 290 288 285 287 287 289 288 288 288 283 281 287 286 278 277 281 276 276 276 276 278 281 283 282 282 284 286 285 285 287 290 291 290 290 291 291 291 288 287 286 287 287 289 289 288 288 289 289 289 289 288 288 288 288 287 287 287 287 287 287 288 288 288 288 288 288 287 287 286 286 286 286 286 286 285 284 284 283 282 281 281 280 280 280
290 286 287 286 287 286 284 285 280 284 288 287 287 284 283 281 279 276 281 277 279 278 279 279 282 280 288 284 286 285 287 288 289 288 289 291 292 293 292 287 288 287 288 288 288 289 289 289 289 289 289 289 288 288 287 286 286 286 287 286 286 287 286 286 286 287 287 287 287 286 286 285 286 286 286 285 284 284 283 283 282 281 280 280 280 280
288 291 283 285 283 287 282 283 282 285 284 284 285 281 282 280 281 281 282 280 279 277 277 277 277 282 288 285 286 286 286 287 288 289 290 291 292 291 288 290 289 288 288 288 288 288 288 288 289 289 289 289 287 286 285 285 286 287 286 286 286 286 286 286 286 286 286 286 286 286 285 285 285 285 285 284 284 284 283 282 282 281 280 279 279 279
287 285 284 284 282 283 287 287 287 288 290 287 287 285 286 282 278 278 278 285 281 281 277 277 277 284 291 290 289 289 287 286 287 289 290 290 290 290 290 288 287 287 286 288 288 288 288 288 288 288 288 285 284 286 285 286 286 285 286 287 287 286 286 286 286 286 286 286 286 285 285 284 284 284 283 283 283 283 282 281 281 280 279 279 278 278
290 285 285 284 287 287 289 290 288 289 289 287 288 285 287 284 283 280 278 281 283 281 285 283 280 282 294 295 294 292 288 287 288 289 290 291 291 291 290 288 286 286 287 287 288 289 288 288 288 288 288 287 287 288 287 286 285 286 286 286 286 286 286 286 287 286 286 285 285 284 284 283 283 283 282 282 282 282 281 281 280 280 279 278 277 277
293 287 282 285 288 288 290 289 288 288 289 286 286 285 285 282 284 283 283 284 283 283 281 281 279 282 293 295 294 293 288 287 290 290 290 290 289 288 285 285 285 285 286 287 287 286 288 287 286 285 286 287 287 287 287 287 287 286 286 286 286 286 286 286 286 286 285 284 284 283 283 282 282 282 282 282 282 281 281 280 279 279 279 278 277 277
286 285 284 280 281 282 285 288 289 286 286 284 284 287 288 289 288 287 286 285 282 282 283 280 275 282 291 294 293 292 292 290 289 286 286 289 288 284 283 283 284 285 287 287 287 287 286 285 286 288 288 288 288 288 288 287 287 286 286 286 285 286 286 286 285 284 284 284 283 282 282 282 282 282 281 281 281 281 280 279 279 278 278 277 276 276
289 286 285 280 277 275 275 277 278 283 285 286 285 287 288 287 287 285 281 283 279 282 284 281 280 286 292 293 293 294 294 294 294 291 288 287 286 288 286 287 287 286 287 288 287 285 286 288 289 289 289 289 288 288 288 287 287 286 286 285 286 286 285 285 285 284 284 283 283 282 282 282 281 281 281 281 281 280 279 279 278 278 277 277 276 275
286 287 286 286 283 281 284 285 288 285 282 282 283 286 287 288 288 287 286 283 280 283 282 284 285 285 288 290 291 293 294 294 294 295 293 293 288 286 288 288 288 289 289 288 286 287 287 287 288 289 289 289 288 287 287 287 286 286 285 285 285 285 285 285 284 284 283 283 283 282 282 282 282 282 281 281 280 279 278 278 277 277 276 276 276 275
285 284 286 286 286 287 289 288 290 290 286 287 286 285 286 286 286 285 283 281 286 283 279 285 287 285 286 289 291 292 293 294 295 295 295 294 294 295 295 293 291 288 288 285 284 285 288 290 291 290 289 288 288 287 286 285 285 285 285 285 284 284 284 284 284 283 283 283 282 282 282 282 282 281 281 281 279 278 278 277 276 276 276 275 274 274
284 284 286 286 285 288 289 289 290 289 289 288 288 288 287 287 284 282 283 286 286 283 280 286 287 285 287 290 292 293 294 294 295 295 295 295 293 291 289 289 290 291 289 285 286 287 289 289 291 291 290 289 287 286 285 284 283 283 283 283 283 283 283 284 283 283 282 282 282 282 282 282 281 280 280 279 278 277 276 276 276 275 274 274 274 274
287 285 288 288 285 286 287 287 288 287 287 287 287 288 288 288 287 286 285 286 285 284 286 287 287 286 289 290 293 294 296 296 296 296 295 293 293 293 292 291 292 292 291 286 288 289 290 290 291 291 290 289 287 286 285 284 283 283 283 282 282 282 283 283 282 282 282 282 282 282 281 281 280 279 279 278 277 276 276 275 274 274 273 273 272 272
290 284 291 287 284 284 286 287 287 287 286 285 286 287 287 288 287 287 287 287 287 286 287 286 285 285 291 293 293 295 296 296 295 293 294 294 295 294 294 293 293 292 290 287 288 289 290 291 291 290 290 289 289 287 286 286 285 283 282 282 281 282 282 283 282 282 282 282 282 281 280 280 279 278 277 277 276 275 274 274 273 272 272 271 270 270
288 285 289 286 282 281 286 285 285 286 285 284 284 285 285 285 284 286 285 287 286 284 286 285 283 284 290 293 294 294 294 293 293 293 294 295 295 294 294 293 293 292 290 291 291 291 291 291 290 289 290 290 290 288 287 286 285 283 282 282 281 282 281 282 282 282 282 282 281 280 279 279 278 277 276 276 275 274 273 273 272 271 271 269 269 269
285 284 283 284 281 280 286 286 284 284 283 280 281 285 287 287 288 288 289 289 288 288 284 282 283 289 291 293 291 292 292 292 292 293 293 293 294 294 294 293 293 292 293 294 295 294 293 291 290 290 291 291 290 290 289 287 286 283 283 282 282 281 280 281 281 281 281 280 279 279 278 278 277 276 275 275 274 273 272 271 271 270 269 269 269 268
285 285 284 286 280 281 285 285 285 280 273 275 287 290 289 287 287 285 285 287 289 289 287 289 290 292 292 291 291 291 291 292 293 294 295 294 294 294 293 293 293 293 293 292 292 292 292 291 291 291 291 291 292 291 291 289 287 287 285 283 281 280 280 280 280 280 279 279 279 278 277 277 276 275 275 274 273 272 271 270 270 270 269 268 268 268
285 285 283 285 281 280 284 284 280 274 275 286 291 291 292 291 290 288 288 289 289 290 290 289 290 291 292 293 293 293 294 294 294 294 294 295 292 292 293 294 294 294 294 293 291 290 290 290 289 289 290 290 290 290 289 288 287 286 282 281 280 280 280 280 280 279 279 278 278 277 277 276 276 275 274 273 272 271 270 270 270 269 268 268 268 267
285 285 284 283 283 283 281 280 273 275 283 284 290 290 292 291 290 288 286 288 290 290 290 289 290 292 292 293 293 294 294 294 294 294 294 293 291 290 290 290 291 291 291 291 290 290 290 289 289 289 290 291 290 289 288 289 287 284 283 281 281 279 280 279 279 279 278 277 277 277 277 276 275 274 273 272 271 270 270 270 269 268 268 267 267 267
288 286 285 281 285 277 279 279 279 285 284 283 284 285 287 284 285 284 281 285 290 286 287 286 288 289 290 291 292 292 293 292 291 291 289 287 288 289 288 288 289 289 289 290 290 290 291 292 290 290 290 289 289 288 287 287 284 283 280 279 279 279 278 278 278 278 277 277 277 276 276 276 275 273 272 271 270 270 270 270 269 268 268 267 267 267
290 285 285 282 280 285 279 277 279 278 275 282 289 290 293 292 292 291 287 284 281 279 285 286 285 286 285 286 286 287 288 286 285 285 287 288 288 289 288 288 288 289 289 289 288 288 288 288 288 288 287 288 288 287 285 281 281 280 279 279 278 278 277 278 278 278 278 278 277 276 276 276 275 273 272 271 270 270 271 270 269 268 268 267 266 267
288 289 286 283 281 282 280 277 276 275 279 285 282 287 288 290 291 289 284 280 281 278 282 287 285 285 284 284 285 286 284 281 282 284 288 288 288 287 287 288 288 288 289 288 286 286 286 286 286 286 285 284 285 282 279 279 279 280 279 278 277 278 277 277 278 278 278 278 277 276 276 275 275 274 272 271 271 271 270 269 268 268 267 268 268 267
284 285 285 280 280 281 280 278 276 282 279 278 281 284 287 286 289 285 275 274 277 279 282 286 284 283 282 283 283 282 281 278 280 283 287 288 288 288 287 288 288 288 288 288 289 287 286 285 285 287 288 286 283 277 278 278 278 279 279 277 276 277 277 278 279 279 278 277 276 276 275 275 274 274 272 272 271 270 270 269 267 267 267 268 268 267
278 281 283 278 280 281 281 279 282 282 282 280 281 285 286 287 285 279 273 272 277 280 282 284 282 282 281 282 282 278 281 283 284 286 287 287 286 286 287 288 287 288 287 287 287 288 288 288 285 286 287 287 282 278 278 277 278 278 277 276 276 277 278 278 277 277 277 277 276 275 275 275 274 273 272 272 271 270 268 268 267 267 267 267 267 267
272 276 279 281 278 277 279 277 277 282 280 283 284 285 286 284 278 272 275 280 281 280 284 283 281 282 282 283 281 281 282 283 284 284 284 284 284 285 285 286 287 287 287 287 287 287 287 288 287 287 288 286 280 278 278 280 280 278 276 276 276 278 276 276 276 276 275 275 275 274 274 273 273 273 272 271 270 268 267 267 267 267 267 267 266 266
272 274 271 273 274 276 276 274 273 272 280 284 283 281 284 273 274 280 281 281 282 283 282 281 281 280 282 281 281 281 282 282 282 283 283 284 284 284 284 284 284 285 285 285 286 287 287 287 288 288 287 286 279 279 280 279 280 279 278 277 279 277 276 275 275 275 274 273 272 272 272 272 271 271 270 269 269 268 267 266 266 266 266 266 266 265
277 270 271 275 279 271 271 270 271 277 278 284 281 274 279 279 282 282 281 280 283 283 282 281 281 281 282 281 280 281 282 282 282 283 283 284 284 284 284 285 285 285 285 285 285 286 286 287 287 288 288 286 279 279 281 280 281 280 279 280 279 276 275 274 274 273 272 272 271 270 270 270 270 270 269 268 268 267 266 265 265 265 265 266 265 265
283 275 276 271 276 273 269 274 278 281 282 284 283 279 280 281 281 282 283 281 280 280 282 280 280 281 281 281 281 281 281 282 282 283 282 283 284 284 284 285 285 285 285 285 286 286 286 286 286 287 287 286 280 279 280 280 281 280 278 279 277 276 274 273 272 271 271 271 270 270 269 269 268 268 268 267 267 267 266 265 264 264 265 265 265 264
277 278 278 276 273 279 279 280 281 281 280 279 281 281 280 280 283 284 282 279 280 282 282 280 281 281 281 282 281 281 281 280 280 281 282 283 283 284 285 285 285 286 286 286 287 287 287 288 288 287 286 286 283 279 279 280 281 281 282 275 275 275 274 272 271 271 270 270 269 269 268 267 267 267 267 267 267 267 266 265 265 264 265 265 264 264
274 275 274 272 275 273 267 277 276 277 278 278 279 280 279 282 282 280 279 280 281 280 280 281 281 281 281 281 280 279 278 279 279 280 281 281 282 282 282 282 283 284 285 285 286 287 287 287 288 288 287 286 285 282 281 281 281 282 281 275 276 274 273 272 272 271 270 269 268 267 267 267 266 265 266 266 266 266 266 265 265 264 264 264 264 264
269 277 272 272 272 270 270 275 276 277 278 279 278 277 277 277 277 278 279 279 280 280 279 280 281 280 280 278 278 277 277 278 278 279 279 280 280 281 281 281 282 283 284 285 285 286 286 287 287 287 287 287 287 285 282 280 281 281 280 276 275 273 272 272 272 271 269 268 267 266 266 266 265 265 265 265 265 265 264 264 265 264 264 264 264 265
274 275 268 270 271 272 275 275 275 275 276 276 277 277 277 277 277 277 278 277 277 276 277 279 279 278 278 277 277 276 276 277 278 278 278 279 279 279 280 281 282 282 283 283 284 285 285 286 286 286 286 287 288 287 285 282 281 281 279 276 274 273 272 272 270 270 268 267 266 265 265 266 265 265 265 265 264 264 264 264 264 264 265 267 267 267
273 270 274 272 268 268 269 272 274 269 269 274 276 276 274 275 274 273 273 273 274 274 276 276 276 277 277 277 276 276 275 276 277 277 277 278 278 279 279 280 280 281 282 283 284 284 284 285 285 285 285 286 287 287 286 284 282 279 278 275 273 272 272 271 269 268 267 266 265 265 264 264 264 264 264 264 264 263 264 266 268 267 266 266 270 272
273 273 273 270 269 268 274 275 275 275 274 275 275 274 274 273 272 271 272 272 273 274 274 273 273 273 274 275 276 275 275 275 275 276 276 276 277 277 278 278 278 279 280 281 281 282 282 283 284 284 285 285 285 286 285 284 282 279 276 275 273 272 272 270 269 268 266 265 265 265 264 264 263 264 264 264 263 263 263 264 267 271 271 270 271 272
Wind_Speed
5 7 7 8 13 13 5 10 15 15 9 10 8 7 12 11 12 13 11 6 6 3 10 14 17 16 17 18 17 15 12 11 12 11 13 13 14 15 13 15 15 14 19 10 7 11 13 13 12 10 10 10 10 11 13 14 14 15 16 14 15 13 13 13 12 12 12 12 8 7 10 11 9 9 8 8 7 8 7 9 9 9 8 8 8 7
4 6 8 14 17 11 9 12 12 10 9 12 12 10 13 6 15 14 9 2 4 6 5 11 14 15 18 19 17 9 5 13 15 14 14 16 15 14 15 18 16 18 9 4 5 6 6 8 8 8 9 10 13 10 13 16 15 14 14 16 15 12 13 14 15 13 12 12 13 13 12 10 10 9 10 10 8 9 7 9 9 8 8 8 8 7
5 10 13 19 13 6 6 5 7 10 10 10 11 11 9 10 13 13 7 7 4 5 13 8 12 14 16 19 16 11 12 13 14 15 19 16 16 13 15 17 17 13 11 6 7 5 8 10 10 10 10 12 15 15 16 14 14 14 14 14 14 13 14 13 13 12 12 8 7 8 7 9 7 3 4 5 5 6 8 8 9 8 8 9 7 8
6 7 18 13 8 9 10 7 8 7 8 9 10 8 13 9 6 14 4 0 2 8 4 4 10 10 9 13 16 16 11 14 15 16 20 17 15 15 19 17 14 11 10 12 8 9 9 11 10 9 10 12 10 11 10 13 16 14 14 13 14 14 13 12 12 11 9 9 6 4 6 5 5 6 6 5 6 6 8 8 8 8 9 9 9 8
16 8 8 10 10 10 15 11 6 7 13 11 13 10 10 11 13 12 9 2 2 4 3 8 11 12 9 16 16 16 14 14 15 15 18 18 14 14 16 14 15 15 11 10 6 6 8 10 13 16 13 11 13 13 15 15 15 13 16 16 15 14 14 12 12 12 10 8 7 6 6 5 5 4 5 6 6 8 8 8 8 10 10 10 9 8
14 8 3 6 9 11 10 9 8 8 14 13 8 11 17 13 13 12 9 7 4 5 4 2 9 11 9 19 20 13 3 7 11 14 18 19 17 13 16 20 17 10 9 12 13 14 14 14 9 6 9 13 12 14 15 15 16 14 13 13 13 11 11 12 13 13 11 11 11 10 10 10 8 8 10 13 14 12 13 14 9 7 8 9 8 8
7 7 8 9 8 10 7 8 6 10 15 12 6 12 13 11 10 7 7 2 7 7 4 2 7 16 5 7 9 8 7 14 8 9 16 15 14 12 15 18 13 9 8 6 6 8 9 9 10 10 12 14 15 15 12 12 13 13 13 14 14 13 11 11 12 13 11 11 11 15 15 14 14 14 11 9 8 10 8 6 10 9 8 9 9 8
4 5 8 10 12 11 8 7 11 14 10 11 2 6 6 6 7 7 5 7 9 1 3 0 2 7 20 10 7 9 12 12 11 11 11 13 13 13 15 16 13 7 8 10 11 11 12 13 16 17 17 14 17 13 11 12 12 14 15 14 14 11 11 11 12 14 14 14 13 13 13 12 12 12 12 12 11 9 8 9 9 8 8 8 8 8
4 2 6 8 6 6 9 17 5 9 8 4 1 5 3 5 4 0 1 2 2 4 9 6 2 6 16 5 14 16 12 11 14 14 14 14 15 15 15 15 15 8 10 12 11 13 14 15 15 13 13 13 9 10 13 14 14 13 12 13 12 12 12 12 15 15 15 14 14 14 12 11 9 9 8 7 7 8 8 10 8 8 8 7 7 7
2 2 5 8 7 10 10 1 6 11 7 3 2 5 4 3 3 1 1 1 3 2 12 7 8 7 23 14 7 4 8 11 12 15 16 16 16 17 16 12 13 8 7 10 13 13 13 13 13 12 9 8 11 9 8 8 8 10 10 12 14 14 13 13 15 16 16 15 13 13 13 14 11 8 7 8 10 9 9 11 10 9 9 8 7 7
4 2 3 5 8 5 3 1 1 1 1 1 3 2 4 5 2 2 4 3 4 9 10 12 12 10 16 5 12 9 8 11 12 7 9 10 11 15 15 8 10 10 9 10 10 8 8 8 9 7 11 11 7 7 8 9 10 10 11 13 15 16 13 14 16 17 17 15 14 14 15 15 14 12 11 11 10 10 10 11 11 10 9 8 9 7
4 1 2 4 4 4 4 2 4 1 1 2 1 1 5 7 4 2 3 2 3 14 4 14 15 15 14 3 2 7 1 13 14 10 11 11 13 15 13 9 10 9 9 8 7 7 7 7 7 7 10 11 12 9 11 10 11 12 13 13 16 14 15 14 15 16 16 15 15 14 15 16 15 15 13 15 15 14 15 13 12 10 9 9 8 8
8 13 7 2 4 11 3 2 2 3 2 3 4 4 2 6 5 3 2 2 6 13 2 9 10 2 23 6 3 6 6 5 6 9 12 12 12 14 11 9 8 8 6 8 8 8 9 12 13 12 12 10 12 15 15 15 14 13 13 15 16 17 16 16 15 17 17 15 16 16 16 15 13 14 14 14 14 13 14 13 12 12 12 10 10 10
9 3 5 5 2 6 9 8 2 2 6 8 8 6 4 4 4 5 5 4 6 5 5 7 5 14 9 4 12 12 12 11 11 12 11 11 12 13 12 9 6 6 8 9 9 11 12 12 12 13 13 14 13 14 15 14 14 13 13 14 17 18 16 14 15 17 17 18 17 15 15 14 13 14 14 13 13 13 12 12 14 15 14 14 15 14
6 12 7 8 6 6 14 14 16 11 8 14 5 13 12 9 4 2 4 9 9 10 2 1 6 8 2 6 8 17 17 15 11 13 12 10 10 11 7 3 4 5 5 6 9 11 13 13 12 13 13 13 13 13 13 13 14 13 14 15 18 16 16 17 18 16 18 17 16 15 14 13 12 13 12 12 11 12 13 11 12 12 11 12 11 12
10 13 6 12 0 9 13 12 7 5 2 3 4 2 1 8 6 11 8 5 5 5 8 3 8 4 7 1 3 5 6 7 6 9 9 10 9 9 8 7 7 6 6 6 8 8 8 9 9 8 9 11 10 11 11 12 13 14 17 17 19 20 18 18 17 17 19 18 15 15 15 16 14 11 10 9 9 11 12 12 13 12 11 10 9 8
1 8 1 3 6 4 3 3 4 6 6 3 8 8 13 4 8 5 5 3 2 1 17 4 7 9 8 13 8 16 10 10 6 7 6 9 12 11 11 10 6 6 6 6 8 10 10 6 7 10 10 8 8 9 14 18 18 20 18 16 18 17 14 16 18 18 16 15 15 17 16 14 14 15 15 14 13 12 10 10 10 10 10 9 9 9
7 7 2 5 4 1 2 1 0 1 3 8 3 9 1 2 4 4 5 2 3 9 11 10 16 13 6 14 4 5 1 6 7 9 11 15 14 13 13 9 8 10 10 8 6 5 5 7 9 9 8 10 13 16 16 17 15 13 13 15 17 16 17 18 17 17 16 16 17 16 17 17 17 16 14 12 12 11 10 9 9 8 9 10 10 10
4 10 12 6 5 2 1 1 3 1 1 5 5 2 7 4 3 4 4 5 6 9 8 8 15 14 10 16 6 8 5 8 12 14 11 11 12 11 13 10 6 4 2 5 9 9 8 10 12 13 15 15 14 12 11 10 9 9 10 12 13 17 20 19 15 13 12 13 13 14 17 17 15 14 13 11 11 11 12 13 11 12 11 9 10 10
2 9 3 0 5 2 1 4 7 5 1 1 2 2 1 1 4 6 8 4 4 15 9 14 10 15 10 4 5 7 7 8 9 8 10 12 12 16 14 6 7 8 8 8 9 10 11 11 12 13 14 14 16 16 12 9 7 11 13 11 12 12 9 9 13 15 16 16 13 12 11 12 13 13 13 12 13 13 14 13 12 12 11 12 10 11
7 9 13 2 3 1 3 6 9 11 10 4 3 3 1 2 3 3 2 5 7 9 8 9 12 11 14 4 2 3 5 7 8 11 11 11 13 11 9 10 9 8 8 8 8 9 10 11 11 12 12 12 6 4 6 9 14 15 11 12 14 16 16 15 15 14 15 12 14 13 15 16 14 15 12 12 13 13 12 12 12 12 12 10 12 11
1 2 13 2 0 6 9 2 9 10 12 11 13 13 14 9 3 5 11 2 3 7 7 8 14 6 17 2 1 1 3 3 5 7 9 10 12 13 13 11 9 7 9 9 9 8 9 9 10 9 7 5 5 7 9 13 11 10 14 17 14 12 13 15 15 15 15 12 11 13 14 13 11 11 11 14 13 14 13 13 13 12 11 13 11 13
3 1 4 8 9 9 3 3 3 6 3 2 7 8 7 3 4 5 13 8 5 4 4 8 10 11 12 24 13 11 4 4 6 7 10 11 15 15 15 13 9 8 8 8 9 9 10 9 11 11 10 11 13 14 12 9 11 15 16 14 14 16 18 17 17 13 11 12 12 13 10 9 11 11 12 14 13 15 14 13 12 12 14 13 12 10
2 1 2 7 4 5 5 2 1 2 2 3 4 2 2 5 7 8 8 6 9 5 8 6 12 6 10 23 14 12 5 6 9 8 11 12 11 11 8 7 6 6 8 8 7 6 7 7 6 4 7 11 12 13 15 16 15 14 12 13 13 16 18 16 14 12 11 11 11 10 11 12 11 12 13 14 13 15 14 13 12 12 13 13 11 13
4 2 2 3 5 5 8 10 9 1 2 4 5 6 7 8 8 10 7 0 11 10 13 13 17 7 13 20 13 14 16 14 12 7 6 10 9 6 7 7 6 6 8 9 9 9 7 5 7 11 12 13 14 13 13 14 14 14 15 13 15 17 16 13 9 10 12 13 13 12 13 13 13 15 15 15 12 14 14 14 13 12 13 12 12 12
9 4 4 10 10 12 9 9 9 13 12 5 3 10 14 16 18 10 10 9 15 10 16 14 14 13 20 20 22 24 25 25 22 16 11 9 10 11 8 9 10 9 10 11 8 6 8 11 11 10 11 12 13 13 14 14 14 14 14 15 15 14 12 14 13 13 12 13 14 14 15 15 14 16 17 16 13 14 13 13 13 13 11 13 14 12
4 7 12 15 15 16 15 14 7 3 2 6 6 14 16 17 19 18 13 11 14 14 17 17 19 21 20 19 24 28 24 25 27 22 16 16 11 11 11 11 9 10 10 9 7 7 7 7 11 13 13 12 11 11 12 13 14 14 15 15 14 14 13 13 13 13 14 14 15 14 15 16 18 17 16 16 14 11 11 12 12 13 14 12 13 13
4 5 15 21 25 22 23 23 22 17 17 15 15 16 15 15 16 18 16 19 18 15 19 14 21 21 21 20 24 27 27 26 27 25 19 14 16 20 20 16 11 10 10 4 3 6 10 13 14 13 12 11 12 12 11 11 13 14 15 16 14 13 12 11 14 14 14 14 14 15 16 16 14 14 15 13 12 12 12 11 11 12 11 11 12 13
7 13 14 16 23 22 26 26 24 20 18 19 19 19 21 19 14 16 20 22 19 17 23 18 19 21 20 21 25 28 29 29 28 24 16 13 10 9 9 11 13 14 9 4 7 7 12 14 14 14 12 12 12 12 13 12 11 10 10 10 10 11 14 13 13 13 14 14 16 16 15 12 10 9 10 12 12 13 13 12 11 10 10 10 10 9
3 13 11 17 22 20 22 23 23 24 23 22 22 23 24 23 21 19 20 19 20 22 20 18 18 22 16 17 22 28 29 28 24 18 15 15 16 15 15 15 15 15 11 6 10 13 15 15 14 13 11 11 12 14 13 12 12 13 14 14 12 13 13 12 14 15 15 16 17 14 12 12 11 11 11 12 14 14 13 12 12 11 11 10 10 9
12 9 14 17 15 18 21 22 22 23 24 26 24 23 22 21 21 23 21 20 20 23 22 25 24 25 18 20 22 23 22 21 19 20 24 24 23 24 21 17 16 15 12 10 13 15 12 12 14 13 11 13 15 15 14 14 15 13 13 11 10 13 13 13 14 14 15 17 14 12 11 12 12 12 13 13 12 11 13 13 12 11 11 10 9 10
12 13 10 9 11 13 12 19 22 22 24 26 25 23 21 22 25 23 21 21 20 23 24 23 21 20 21 25 26 25 26 24 25 25 26 25 28 25 23 21 18 15 13 15 14 12 12 14 16 13 15 17 17 15 13 13 13 11 13 12 13 13 11 13 13 15 15 14 11 12 13 13 13 13 12 12 13 13 13 12 12 12 12 11 11 10
7 6 8 10 16 15 10 17 20 22 21 21 20 22 29 30 25 21 22 21 22 22 21 18 22 21 24 20 22 21 23 25 24 23 25 26 27 28 25 21 17 14 15 18 18 16 16 16 15 16 17 16 15 15 15 16 12 12 14 13 15 10 12 14 14 14 12 11 12 13 13 12 14 14 13 14 13 13 13 14 14 13 13 14 12 10
5 10 11 7 13 11 11 18 14 14 19 19 15 28 28 28 27 28 24 25 28 22 20 21 24 20 20 17 21 23 24 24 22 21 19 19 20 20 18 16 17 17 14 12 12 12 12 12 12 13 15 16 17 17 16 13 15 16 14 12 7 12 13 13 12 12 12 11 12 13 13 13 14 14 14 13 13 13 14 14 15 13 11 10 10 11
8 8 12 6 9 9 10 12 12 20 17 9 12 13 22 27 27 28 28 27 27 26 29 28 26 24 25 23 22 22 21 21 20 21 21 18 9 9 18 21 20 18 16 13 12 11 12 11 11 12 12 13 16 14 11 10 11 11 6 9 12 12 13 13 13 12 12 13 13 13 13 14 15 15 14 14 14 14 14 15 13 13 12 12 13 13
16 16 11 9 10 10 7 8 16 13 2 5 4 13 15 19 21 22 25 24 24 25 25 25 23 23 22 22 21 20 20 20 19 16 14 10 11 10 11 12 14 15 16 14 11 11 10 10 12 13 14 14 10 10 9 12 10 9 11 8 12 11 12 12 12 13 11 12 13 15 15 15 15 14 14 14 14 15 16 15 15 16 12 11 9 7
20 15 11 13 11 14 12 14 19 11 14 6 2 5 9 12 12 17 21 19 9 13 15 14 17 18 18 16 15 15 15 15 12 12 6 12 10 9 7 9 11 12 13 14 14 13 13 13 10 10 10 9 8 9 11 10 6 8 6 8 8 10 10 11 12 13 15 14 14 15 15 15 16 15 15 15 16 16 16 15 13 12 10 12 11 11
18 16 11 13 8 12 14 16 14 12 15 11 15 14 18 22 21 19 16 13 14 16 16 12 11 13 16 18 20 19 7 5 10 4 10 15 10 12 10 8 10 12 13 13 15 14 13 12 11 10 6 9 10 9 5 2 5 7 7 8 8 10 11 13 14 15 15 16 15 15 15 15 15 16 16 15 18 17 14 12 11 12 12 14 13 12
11 14 15 16 10 12 17 16 15 15 12 8 14 15 15 14 10 7 7 10 9 14 18 12 13 14 16 17 16 16 14 6 5 7 11 16 16 10 12 11 10 9 11 10 9 12 14 12 11 9 8 6 7 9 3 2 5 7 7 8 9 9 11 14 15 13 16 17 15 14 14 14 15 16 17 17 17 15 16 15 15 12 11 11 12 12
7 10 10 16 12 11 15 16 15 6 4 9 11 15 16 15 12 3 10 4 14 17 12 7 13 16 17 14 14 13 12 10 12 14 17 17 13 11 9 13 14 16 13 12 13 10 8 8 11 13 12 10 8 3 1 1 2 4 5 6 6 9 11 14 17 15 10 9 12 13 13 14 16 16 17 17 14 12 13 11 10 12 12 10 11 12
4 4 7 17 14 18 22 20 13 7 5 8 9 16 18 14 3 4 6 9 18 18 15 8 12 13 13 11 10 11 10 5 11 14 16 17 16 18 15 10 13 11 11 13 13 12 12 12 8 8 9 8 3 1 2 4 4 4 4 5 7 12 14 6 2 3 5 5 8 11 13 12 14 15 13 12 13 12 11 11 12 12 12 12 10 12
7 5 5 8 11 12 12 15 13 4 4 12 18 13 11 9 5 3 9 11 10 15 13 12 16 13 12 8 9 9 12 13 12 13 15 15 15 16 16 16 17 17 16 12 11 10 12 13 12 10 10 9 2 3 5 5 5 4 4 5 10 12 2 4 6 7 8 8 7 7 9 10 10 10 11 11 11 12 11 9 9 11 13 11 10 11
5 8 5 8 8 9 5 7 6 9 3 19 16 16 10 6 7 7 8 7 7 7 15 16 12 12 9 12 12 11 14 16 15 15 15 15 16 17 17 17 17 17 18 18 20 18 14 13 14 14 12 10 5 3 4 5 6 6 6 9 11 4 5 5 7 8 9 10 10 10 9 9 11 11 10 11 12 13 13 11 11 12 12 14 9 9
4 11 9 6 2 5 7 5 3 7 16 13 10 2 8 5 5 3 2 7 9 7 6 10 11 10 10 12 15 17 15 14 16 14 14 14 14 15 15 15 14 13 14 14 11 12 12 14 14 15 13 11 6 3 3 5 6 6 8 14 7 7 7 8 8 10 10 10 10 10 10 10 11 10 10 12 13 13 13 13 13 13 13 12 16 12
1 3 2 9 6 5 5 11 13 15 13 6 3 7 10 8 2 3 5 9 9 10 5 5 11 9 9 10 13 14 15 14 13 14 15 15 16 15 15 15 15 15 15 16 15 13 9 11 15 16 16 14 8 5 3 3 5 5 9 6 6 8 10 10 10 10 10 11 11 11 9 9 9 10 11 11 13 14 13 13 15 14 12 14 10 9
9 15 14 10 8 9 11 8 12 11 12 14 15 11 9 3 5 6 6 9 8 6 6 8 6 8 8 7 8 10 10 14 18 18 15 14 15 15 14 14 15 14 13 12 14 15 13 13 13 13 13 13 9 6 4 4 5 8 10 3 6 6 8 10 12 12 12 11 10 12 12 12 10 10 11 12 11 13 13 15 15 14 13 10 8 7
4 5 8 7 8 11 12 6 8 8 16 20 20 10 2 6 6 4 6 5 3 4 5 6 7 8 8 7 9 11 15 15 16 17 16 15 15 16 17 17 17 15 15 15 14 14 14 13 13 14 14 13 9 6 7 8 9 11 7 7 7 8 9 10 10 11 11 12 11 11 12 14 11 10 10 11 10 10 11 12 11 8 9 9 9 9
7 2 8 5 13 10 13 12 14 15 16 15 12 12 9 4 3 4 2 2 3 4 6 7 7 7 8 9 9 12 14 15 15 16 17 17 16 15 16 16 17 18 16 12 12 13 13 13 14 14 14 14 13 7 8 10 11 11 7 4 7 8 10 11 12 12 12 13 12 12 12 13 14 15 9 12 13 13 12 11 7 10 12 12 12 12
8 5 8 5 11 11 15 16 13 13 11 13 12 7 9 5 1 0 0 1 3 4 6 6 5 9 10 12 13 13 14 14 15 15 16 16 17 16 16 17 17 17 17 17 15 12 12 13 14 14 15 15 13 11 8 11 12 9 9 8 8 10 12 11 11 10 11 11 11 11 11 12 13 12 13 12 11 12 10 7 9 8 4 11 12 15
6 9 12 10 11 11 11 13 10 11 11 13 15 10 3 4 6 6 6 6 7 8 7 7 9 10 11 11 12 11 12 15 15 15 16 15 16 18 18 17 17 18 18 16 14 15 15 14 14 14 15 15 14 13 11 12 12 9 8 8 9 10 12 10 9 9 10 10 11 10 11 11 11 12 13 13 13 11 9 5 12 13 12 13 15 15
11 12 9 10 10 14 14 13 8 9 12 11 13 3 3 2 5 10 11 10 7 6 6 9 12 13 13 14 12 14 14 15 16 15 16 14 16 16 17 19 19 18 18 19 18 17 16 16 15 15 16 16 14 13 13 13 12 9 8 10 10 12 12 11 10 9 9 10 11 12 13 13 12 13 13 12 12 13 12 10 11 17 17 10 14 14
Wind_Direction
138 169 170 196 229 229 203 198 217 230 233 256 266 264 255 258 268 260 268 236 202 217 217 226 235 241 251 250 248 247 258 264 257 241 238 239 244 246 244 244 245 247 245 258 200 207 205 193 188 181 171 170 169 167 167 166 171 169 169 166 175 176 169 165 166 172 168 170 164 167 180 179 178 176 171 173 170 169 167 166 165 164 163 164 167 169
115 176 214 220 230 228 200 207 222 242 242 242 251 257 262 238 265 255 263 211 219 190 257 231 244 245 249 256 256 251 242 252 253 252 241 239 238 246 248 252 249 246 265 276 230 217 196 184 178 167 167 158 165 181 170 174 174 171 170 176 175 175 177 178 177 175 178 178 178 173 181 175 176 167 171 175 183 175 161 165 166 164 165 166 169 170
194 207 222 227 233 246 231 214 217 218 234 242 242 250 267 255 257 274 249 245 239 179 263 254 251 249 251 257 261 249 233 242 244 244 252 243 245 246 249 248 251 254 253 251 244 203 190 181 175 169 173 180 177 172 176 172 167 174 177 182 176 180 180 184 179 174 180 175 173 174 169 170 167 180 165 161 158 150 158 169 167 163 166 167 171 172
257 245 235 228 231 244 259 236 241 259 251 247 250 255 247 253 270 284 220 349 185 183 241 238 260 265 273 271 266 256 239 240 243 245 253 251 248 245 249 247 250 251 243 239 214 191 187 182 176 172 177 180 168 167 172 174 177 179 184 183 180 183 184 180 182 178 173 167 152 128 136 140 147 167 156 143 142 150 151 169 173 171 169 170 172 174
226 224 218 219 221 222 242 241 233 248 262 238 233 240 256 250 243 237 276 336 277 298 301 299 282 271 234 260 264 257 240 247 252 252 256 260 251 245 258 263 253 246 230 225 207 204 183 178 186 186 181 166 173 177 179 179 181 185 186 184 183 181 184 181 177 175 160 144 134 120 112 112 94 88 140 146 166 174 171 162 182 184 173 172 172 173
255 251 152 185 222 229 236 256 217 213 259 258 225 206 237 247 258 261 284 330 322 319 248 192 306 262 202 223 243 254 285 242 242 242 250 253 256 251 258 257 251 242 225 206 199 195 192 190 179 174 169 178 181 183 187 183 184 181 183 182 183 182 182 182 178 171 165 168 163 155 157 170 174 174 175 187 183 179 183 189 178 165 173 169 170 175
225 225 193 215 210 225 215 230 226 186 245 263 257 200 229 239 249 266 279 354 281 254 296 125 211 289 150 234 231 250 240 250 250 229 242 248 251 246 244 254 251 220 224 227 212 192 185 188 177 184 185 187 187 193 180 182 184 182 180 183 183 183 182 177 175 172 170 174 179 181 182 181 183 182 198 189 183 182 180 155 172 177 175 174 170 178
200 217 192 218 221 227 229 253 237 190 233 259 218 184 211 239 251 254 234 192 250 239 284 33 118 290 290 233 224 210 223 237 250 248 247 245 247 241 241 246 249 209 203 195 202 199 193 183 183 188 194 189 195 181 175 180 184 184 183 182 183 181 180 178 174 180 181 181 184 186 189 188 191 191 186 182 183 177 165 168 175 168 177 174 175 172
177 232 187 216 209 200 212 225 216 166 201 237 247 158 198 213 225 134 150 212 237 357 284 181 63 303 261 254 198 198 221 235 243 245 244 242 242 244 241 242 250 217 205 194 197 199 192 191 196 193 191 199 184 178 182 186 186 184 178 178 178 183 181 181 180 183 188 187 186 187 184 190 198 187 180 171 165 168 168 170 170 171 172 173 175 175
295 186 207 177 163 218 225 16 161 172 213 270 108 74 71 62 66 63 240 21 326 20 266 168 153 228 282 261 193 198 202 214 229 234 236 234 235 242 245 237 245 238 210 208 207 198 194 194 194 196 188 182 193 186 188 183 176 179 173 179 180 188 186 183 184 187 189 189 183 187 190 189 186 176 162 167 171 173 171 176 176 175 174 175 172 176
231 326 166 141 206 218 113 92 91 340 220 132 69 63 3 25 25 21 75 100 23 256 256 170 187 176 269 303 165 127 211 206 216 237 244 242 247 253 253 229 229 229 209 206 207 201 193 190 191 171 184 191 182 185 181 183 181 179 180 182 188 192 187 186 189 187 191 189 189 192 190 189 185 180 171 172 181 176 176 180 178 177 177 174 177 168
248 107 178 250 109 87 110 81 358 91 92 98 101 119 19 321 16 36 345 50 183 269 205 187 179 184 231 300 269 192 208 202 189 201 230 235 235 242 249 232 225 217 208 194 181 181 169 171 185 182 191 187 189 180 189 188 183 185 186 186 191 192 192 191 190 190 191 191 195 195 191 192 189 180 182 184 183 183 182 180 178 175 169 176 169 172
254 231 218 104 216 151 133 141 317 15 26 105 74 60 246 269 22 316 32 294 199 243 226 204 176 332 239 251 342 303 273 261 236 210 212 222 233 244 254 244 220 217 186 177 183 169 177 186 186 192 196 185 189 195 192 191 189 189 190 190 190 198 194 193 190 193 192 192 196 195 194 196 188 190 189 188 186 184 183 179 175 173 178 171 173 182
275 270 209 227 26 212 133 189 226 321 208 135 161 157 136 264 239 262 259 245 307 285 249 183 173 234 277 295 200 232 236 221 214 222 225 216 223 237 244 241 207 205 189 188 180 182 186 191 194 194 192 196 196 195 193 192 192 192 193 193 197 202 193 193 193 195 193 198 198 195 195 194 190 195 192 193 189 186 185 180 180 180 179 179 184 179
299 296 223 131 238 181 183 200 202 199 155 195 137 154 194 179 144 229 228 250 247 255 291 194 115 232 358 247 212 206 224 226 215 219 220 227 232 233 264 314 224 185 196 184 184 190 193 196 192 193 196 197 197 195 193 194 196 190 196 197 201 200 197 194 197 195 199 199 197 197 196 194 194 195 193 196 190 183 183 185 182 185 182 182 180 180
224 240 264 179 316 145 183 218 189 93 66 205 159 110 101 226 164 238 231 254 287 347 309 198 212 201 234 248 288 292 306 294 258 239 231 247 256 257 259 236 214 195 189 191 197 206 213 203 196 198 202 204 199 195 196 199 197 197 202 199 201 201 197 196 196 201 201 199 195 195 194 197 193 194 192 194 191 189 185 182 182 182 181 181 172 169
294 254 314 143 28 163 185 28 198 148 215 224 122 189 213 162 185 251 316 262 143 320 260 231 277 272 308 286 235 236 223 244 247 251 252 249 246 243 238 232 218 204 194 198 205 208 209 203 211 207 203 201 197 194 201 202 198 200 198 197 203 204 198 200 202 204 203 199 192 198 196 192 193 192 193 193 189 185 182 180 182 179 178 167 167 164
223 255 30 145 234 282 177 87 138 349 143 105 187 238 58 91 124 140 206 321 229 229 266 280 262 286 338 288 353 67 192 277 284 255 235 234 236 237 238 231 215 205 202 210 229 241 222 212 211 211 211 207 205 205 205 206 204 206 203 203 202 199 200 205 202 203 202 199 199 196 196 197 196 194 194 187 183 177 174 178 174 167 165 174 168 163
175 269 253 204 150 244 32 138 324 317 122 154 186 244 139 254 257 243 96 224 240 245 262 249 287 271 235 264 296 318 272 237 232 237 239 246 246 249 250 243 248 257 215 217 220 219 216 213 214 209 209 211 212 215 216 210 198 201 208 211 207 207 207 204 200 203 207 206 206 199 197 195 193 192 190 184 174 172 179 179 176 174 172 158 162 157
126 238 269 316 145 146 61 125 214 196 249 72 57 321 254 109 207 160 199 177 167 251 251 261 263 274 255 228 261 240 247 240 245 247 242 240 235 235 243 249 235 224 219 216 217 216 216 217 217 214 215 211 210 211 208 198 197 209 211 204 211 217 214 207 205 204 207 209 205 202 194 196 194 189 185 181 174 179 184 180 173 169 166 170 160 164
250 173 245 131 295 68 213 197 200 166 185 211 214 263 276 222 221 134 289 167 208 243 226 261 258 261 270 187 186 259 228 227 218 230 233 232 240 246 249 235 230 223 224 226 224 221 219 221 224 226 223 224 232 216 193 196 203 208 199 207 208 207 206 207 209 204 211 205 207 200 195 195 188 188 180 175 181 180 181 176 174 174 168 153 168 159
259 176 235 147 271 205 238 168 184 190 185 190 191 211 203 191 207 242 253 185 233 230 238 243 252 258 279 138 67 243 274 236 238 219 239 248 242 240 239 236 219 227 232 223 224 222 223 225 228 232 236 235 204 218 210 208 204 203 204 210 207 206 210 209 210 206 208 203 207 207 201 190 187 180 178 179 179 181 178 176 176 168 159 169 166 165
155 213 289 248 235 248 286 272 218 220 216 209 190 229 209 204 197 205 249 229 260 233 262 253 275 245 273 276 275 293 283 237 237 224 235 241 241 235 230 221 220 217 229 227 227 225 224 222 220 219 217 212 212 215 214 209 207 211 213 206 203 204 211 207 210 205 199 197 201 206 202 185 184 181 182 182 182 182 178 177 171 168 168 168 165 168
84 240 223 273 304 307 304 140 143 179 190 313 287 230 148 209 201 233 243 248 253 258 260 252 245 267 259 271 282 284 285 276 260 238 235 242 252 262 278 286 261 246 244 246 244 245 235 232 238 224 217 217 216 215 212 209 213 214 209 208 207 210 212 207 206 198 196 199 202 194 186 191 183 178 185 188 189 184 178 173 172 170 170 167 164 167
360 282 83 324 306 320 308 316 284 144 98 199 204 225 219 240 241 241 262 338 258 230 248 252 257 252 253 267 282 284 286 284 276 273 263 249 255 254 260 252 246 250 261 256 241 233 238 241 230 224 222 217 217 218 216 215 212 210 213 206 206 213 210 206 196 193 196 195 194 189 191 193 184 183 186 191 189 189 178 174 169 172 170 165 169 167
244 228 244 255 243 252 248 234 239 248 233 227 229 235 232 228 232 242 242 224 245 226 235 242 257 242 253 264 276 274 274 275 268 248 240 232 240 254 242 248 252 246 247 249 248 242 238 231 230 232 229 225 222 218 214 215 215 213 212 211 209 211 198 201 190 196 192 193 192 194 192 191 190 189 188 187 187 187 183 175 171 170 170 170 167 165
209 161 206 222 226 240 244 243 241 108 81 213 220 226 237 229 230 228 238 239 239 241 233 233 238 249 248 257 262 266 268 270 271 262 240 245 254 249 250 251 252 254 253 255 241 244 258 267 250 238 232 227 226 220 218 214 212 211 209 213 208 207 199 197 191 193 193 192 194 193 196 194 196 192 185 184 182 174 174 179 176 171 172 172 167 167
113 205 211 224 226 230 236 238 239 225 237 238 239 240 238 236 226 223 220 234 231 247 253 230 237 243 247 250 257 263 265 262 263 268 263 248 244 252 260 268 264 258 260 275 257 246 246 246 248 246 239 231 229 225 224 220 216 213 208 210 204 199 195 193 191 192 192 190 195 198 198 199 197 191 187 177 169 170 173 172 175 176 169 164 169 173
184 234 224 222 239 228 233 238 242 245 242 245 243 245 246 236 231 229 232 235 235 231 245 239 234 241 242 239 249 254 259 261 259 262 271 268 260 253 253 251 253 257 263 244 251 251 250 247 246 245 242 234 230 229 227 223 222 219 220 217 201 192 198 190 187 190 191 192 197 201 197 190 186 192 184 171 165 168 172 172 172 169 167 170 169 169
202 240 237 226 242 233 236 237 239 243 245 247 243 243 244 248 244 234 241 239 235 243 249 258 256 252 245 242 242 249 252 259 270 281 278 273 267 260 251 251 260 269 272 226 238 242 241 242 248 247 242 241 234 231 228 224 222 215 212 212 199 196 198 173 191 188 191 196 201 195 185 181 179 180 179 173 172 172 168 167 168 167 168 170 166 160
209 231 197 233 243 239 234 234 235 236 240 245 243 244 246 252 256 250 250 250 256 257 254 254 254 257 255 255 253 256 262 266 275 278 275 274 270 262 262 266 270 275 272 239 236 241 245 252 253 246 244 242 238 232 228 224 222 217 217 212 194 200 190 182 188 190 192 200 195 184 176 176 180 173 180 180 169 166 166 168 167 166 166 163 159 156
194 251 239 243 246 244 224 236 235 235 239 242 246 247 249 244 245 243 242 237 236 245 248 250 251 252 252 250 254 256 261 264 264 265 268 269 270 277 276 273 270 259 250 252 247 247 255 253 247 240 238 239 239 236 232 231 226 213 216 205 201 199 178 184 188 192 197 195 178 177 177 180 174 174 178 173 175 170 169 162 163 166 165 159 159 162
196 227 228 238 252 246 216 226 230 234 239 238 231 236 238 238 237 242 242 244 236 237 244 242 244 238 244 241 251 253 255 255 256 256 260 264 268 269 275 280 278 269 251 252 258 259 252 242 232 229 235 238 240 239 234 228 223 216 215 201 208 171 175 187 190 191 190 182 176 179 178 174 175 177 176 179 172 167 164 166 167 167 165 172 167 156
241 237 245 225 251 256 231 240 233 236 226 226 209 219 222 233 232 236 238 237 239 228 236 229 243 245 248 247 243 246 247 249 248 249 248 254 264 279 286 280 269 264 263 263 258 251 243 236 234 233 234 235 237 234 233 224 219 223 214 201 166 169 184 180 187 185 184 177 180 179 177 175 175 178 179 173 169 167 169 170 175 171 166 155 155 164
253 253 254 244 263 263 251 251 246 232 241 233 225 223 222 229 233 237 239 237 242 242 247 252 251 250 247 245 245 246 247 252 254 254 256 265 286 287 284 287 291 295 290 284 275 260 254 246 238 239 241 243 240 239 234 234 222 225 184 166 176 182 174 183 180 182 179 180 181 176 176 177 177 178 174 171 169 170 172 173 168 166 167 166 169 169
240 238 238 232 238 256 239 221 244 244 75 334 210 210 218 232 235 247 256 254 255 250 252 258 262 262 260 257 254 253 254 255 261 269 287 326 352 341 339 329 324 327 325 317 295 279 268 249 238 237 238 240 244 244 228 230 220 197 202 173 177 176 179 176 179 183 176 181 183 182 180 176 178 176 171 171 171 173 175 175 173 170 165 161 160 157
230 237 225 254 208 244 238 235 245 276 278 201 165 216 196 215 210 215 244 248 260 344 343 346 343 334 322 307 294 284 276 275 275 285 24 11 348 356 3 343 337 334 332 332 330 314 302 299 287 266 264 268 250 242 233 229 192 185 163 168 177 170 173 172 181 185 186 188 186 183 180 178 176 174 173 173 174 178 177 174 170 165 160 160 165 164
216 220 212 241 222 221 250 257 259 253 249 253 228 224 213 219 218 222 229 247 41 4 353 8 7 8 5 2 357 329 285 260 272 275 360 346 353 337 335 338 338 338 340 341 344 344 337 326 321 309 292 274 274 269 280 182 164 155 164 175 167 166 178 181 192 189 188 192 187 183 179 178 174 174 174 175 181 180 177 171 166 169 169 169 165 170
244 236 237 232 248 230 241 243 245 253 258 24 355 345 338 328 291 297 287 258 17 358 340 356 6 22 17 2 356 1 20 22 354 343 338 342 326 335 323 326 330 332 330 338 344 342 334 335 327 322 346 351 335 333 354 126 146 154 175 176 179 179 180 196 198 188 193 194 182 177 175 175 175 176 176 181 182 176 173 174 174 167 166 172 170 170
263 240 240 244 251 242 255 253 253 256 289 348 337 339 320 315 280 98 252 153 347 335 322 342 15 17 8 355 360 7 16 355 339 332 326 319 315 310 320 316 327 329 324 331 337 336 324 329 349 348 350 346 329 327 25 110 151 177 177 182 168 184 201 206 205 203 191 166 169 173 173 177 179 179 179 180 173 173 172 162 158 169 171 172 163 132
318 300 244 263 255 251 247 252 256 252 89 17 349 342 339 327 55 213 243 4 317 312 330 357 9 1 353 345 4 342 333 317 298 297 304 304 309 313 312 306 303 305 309 320 319 325 328 322 320 309 310 302 274 198 153 138 148 193 184 168 179 209 215 206 118 134 166 169 167 172 176 177 181 177 176 172 169 163 160 167 169 165 171 166 161 139
329 293 275 272 252 266 287 285 276 295 111 6 355 15 340 346 303 17 324 277 292 311 326 346 343 346 334 322 328 316 298 298 288 287 294 299 300 300 305 309 312 311 312 309 308 317 318 316 312 310 312 311 268 178 169 158 171 187 175 176 213 222 140 133 149 136 141 158 169 173 174 173 168 166 164 160 156 162 166 165 165 169 169 164 144 150
269 295 300 308 302 299 281 277 283 257 24 27 345 347 51 57 289 298 304 299 284 332 333 330 320 310 319 312 309 301 303 305 304 302 300 303 306 307 310 313 314 315 318 324 324 325 325 316 312 310 304 300 276 195 185 163 182 183 185 208 226 173 150 147 149 150 151 155 162 169 169 167 164 163 162 162 163 162 164 160 164 169 168 164 149 148
270 281 274 248 344 312 298 283 253 349 328 345 23 352 324 306 244 272 239 310 307 300 294 296 310 310 311 316 315 314 310 307 307 308 308 306 306 306 306 309 308 308 309 308 307 310 321 315 309 307 305 303 288 244 213 182 201 203 200 224 188 162 150 152 152 154 155 158 161 158 162 164 164 162 162 162 160 164 162 164 168 168 172 172 155 145
193 249 270 284 301 294 272 289 304 309 312 324 347 310 310 328 132 197 273 292 300 296 254 273 300 309 313 311 313 312 313 319 318 322 322 319 317 318 319 319 321 320 318 316 318 321 317 307 305 306 306 304 297 282 263 242 222 230 231 237 159 169 163 156 153 154 163 161 158 160 158 153 161 163 163 166 164 166 167 164 166 170 178 171 173 159
315 300 310 307 275 277 267 264 289 301 317 317 311 312 320 304 188 204 249 295 288 265 288 296 297 311 318 319 319 320 321 320 322 320 317 318 318 319 320 319 318 319 318 319 319 323 322 313 305 299 295 295 296 283 269 253 230 241 244 156 175 167 165 158 158 162 163 162 160 159 154 154 157 162 167 169 175 175 172 167 171 174 174 174 159 156
289 294 292 274 307 313 282 313 294 325 314 303 298 306 256 243 250 293 326 322 313 332 342 329 315 317 321 330 330 318 315 315 313 311 313 316 315 315 315 314 311 312 315 314 311 314 316 316 311 309 306 299 291 271 264 250 240 239 238 184 175 164 162 166 167 165 162 163 162 154 160 162 164 165 169 174 173 177 176 175 171 156 160 162 163 166
279 263 291 277 284 273 283 298 301 294 275 270 287 304 309 305 321 3 13 38 13 350 338 317 322 324 324 321 314 309 306 306 307 311 312 311 311 311 310 309 309 309 307 303 305 307 307 305 304 303 302 296 290 266 252 252 248 242 229 196 177 168 165 172 175 172 175 169 166 167 171 173 166 166 159 178 178 175 159 161 165 170 177 172 171 158
269 315 262 269 278 287 288 287 275 274 279 280 281 290 312 346 27 132 335 329 329 336 328 323 325 313 314 305 310 306 301 304 306 308 309 310 310 310 310 309 308 305 305 308 307 304 299 299 299 296 292 287 287 282 256 251 249 239 212 195 181 173 175 183 182 175 170 170 166 173 175 169 171 176 172 175 178 187 180 158 169 171 138 178 172 174
272 258 265 282 283 271 267 277 291 296 293 301 302 312 19 358 360 336 336 342 342 337 327 324 315 305 300 300 304 308 307 308 310 313 311 311 308 308 309 308 307 306 305 303 304 305 301 295 291 290 287 284 283 280 270 257 252 234 209 189 184 181 186 181 174 174 177 177 177 173 172 175 172 174 176 177 174 168 170 199 186 181 168 177 193 201
241 254 262 258 259 268 265 262 255 270 285 275 283 344 99 61 2 344 328 325 322 319 333 330 319 317 314 316 318 314 310 308 308 313 308 308 307 308 308 308 308 308 305 305 304 303 299 296 293 290 285 282 279 274 268 260 253 232 205 194 189 189 189 171 175 182 181 179 188 183 179 177 175 177 177 176 168 169 169 163 183 187 189 196 188 191